Regional Weather Roundup
Issued by NWS Jackson, KY

Home | Current Version | Previous Version | Graphics & Text | Print | Product List | Glossary Off
Versions: 1 2 3 4 5 6 7 8 9 10 11 12 13 14 15 16 17 18 19 20 21 22 23 24 25 26 27 28 29 30 31 32 33 34 35 36 37 38 39 40 41 42 43 44 45 46 47 48 49 50

000
ASUS43 KJKL 292210
RWRJKL

EAST KENTUCKY HOURLY WEATHER ROUNDUP
NATIONAL WEATHER SERVICE JACKSON KY
600 PM EDT SAT APR 29 2017

NOTE: "FAIR" INDICATES FEW OR NO CLOUDS BELOW 12,000 FEET WITH
NO SIGNIFICANT WEATHER AND/OR OBSTRUCTIONS TO VISIBILITY.

* THESE REPORTS ARE NOT UNDER NWS QUALITY CONTROL AND MAY NOT
  REPORT WEATHER SUCH AS PRECIPITATION AND FOG.

KYZ079-080-083-085-087-088-110-112-115-119-120-292300
...EASTERN KENTUCKY...

CITY           SKY/WX    TMP DP  RH WIND       PRES   REMARKS
JACKSON        CLOUDY    87  62  43 CALM      30.03F
LONDON         CLOUDY    86  62  44 S10       30.01S
SOMERSET*      MOSUNNY   84  61  45 S10       30.00F
MONTICELLO*    CLOUDY    86  67  52 E8G16     30.00F
WILLIAMSBURG*  CLOUDY    84  63  48 SW12      30.01S
MIDDLESBORO*   SUNNY     89  63  41 SW6       30.02S HX  90
HARLAN APT*    CLOUDY    90  57  33 CALM      30.04R
PIKE CO APT*     N/A     82  65  56 NE7       30.04F
BIG SANDY APT* PTCLDY    85  66  51 CALM      30.04S
MOREHEAD APT*  PTCLDY    84  64  51 CALM      30.03F
$$

KYZ035-036-041-042-044-050-067-078-099-292300
...CENTRAL KENTUCKY...

CITY           SKY/WX    TMP DP  RH WIND       PRES   REMARKS
MT STERLING*   SUNNY     82  66  57 E5        30.03F
FLEMING/MASON* SUNNY     82  68  60 S5        30.02F
DANVILLE*      PTSUNNY   84  66  54 S8        29.98F
LEXINGTON      SUNNY     85  64  49 S10       29.99F
FRANKFORT      MOSUNNY   84  68  58 E7        29.96F
LOUISVILLE     CLOUDY    86  68  54 SE15      29.92F
LEBANON*         N/A     81  68  65 E5        29.97F
GLASGOW*       MOSUNNY   86  63  46 S6        29.93F
BOWLING GREEN  MOSUNNY   87  67  51 S18G24    29.92F HX  90
$$

KYZ091>093-OHZ055-061-077-WVZ005-015-034-035-042-292300
...SOUTHERN OHIO/WEST VIRGINIA...

CITY           SKY/WX    TMP DP  RH WIND       PRES   REMARKS
COVINGTON      PTSUNNY   80  65  59 SE12      29.99F
COLUMBUS       PTSUNNY   76  63  64 SE7       30.05S
DAYTON         CLOUDY    70  62  76 N12       30.03F
WILMINGTON     MOSUNNY   76  65  68 SE7       30.02F
HUNTINGTON     PTSUNNY   83  68  60 NE5       30.03F
CHARLESTON     MOSUNNY   86  65  49 CALM      30.04F
PINEVILLE*     CLOUDY    87  58  38 MISG      30.12F
BECKLEY        CLOUDY    80  58  46 NE8       30.13F
BLUEFIELD      LGT RAIN  73  60  63 SE5       30.15F
LOGAN CO APT*    N/A     84  61  45 NE6       30.06F
$$

VAZ002-007-008-TNZ017-027-036-066-071-292300
...SOUTHWEST VIRGINIA/EAST TENNESSEE...

CITY           SKY/WX    TMP DP  RH WIND       PRES   REMARKS
WISE*          CLOUDY    82  55  39 S14       30.12F
JONESVILLE*      N/A     90  61  37 S8        30.05S
ABINGDON*      CLOUDY    86  62  43 SW5       30.10R
BRISTOL        CLOUDY    81  69  67 SW7       30.07R
MORRISTOWN*    CLEAR     86  64  48 S9        30.02F
SEVIERVILLE*   CLEAR     90  55  31 SW10      30.01S
KNOXVILLE      MOSUNNY   88  61  40 SW10      30.01F
LAFOLLETTE*    CLEAR     88  63  42 SW13G25   30.05S
OAK RIDGE      SUNNY     88  61  40 VRB5      30.03F
CROSSVILLE     MOSUNNY   82  62  50 S8G16     30.07F
NASHVILLE      MOSUNNY   87  64  46 S17G26    29.95F
$$

...KEY TO REMARKS...
VSB - VISIBILITY IN MILES
WCI - WIND CHILL INDEX
HX  - HEAT INDEX

$$



USA.gov is the U.S. government's official web portal to all federal, state and local government web resources and services.